Aérodrome :
LOGIN :

S'inscrire | Disclaimer

   EN    FR    IT 

 










Légende :    VFR   VFR Marginal   IFR   IFR Intensif   IFR Très Intensif
Visi : 
Plafond : 
>= 8 km
>= 3000ft
5 à 8 km
1000 à 3000 ft
1500m à 5 km
500 à 1000 ft
800 à 1500m
200 à 500 ft
< 800m
< 200 ft
Symboles :   Orages  Brouillard  Fortes neiges  Fortes précipitations  Vent > 20 kt
SIGMETs :   Divers  Orages  Givrage  Turbulence  Onde Orograph.  Cendres Volcan.






- Altitude de l'aérodrome : 396 ft


LFOZ - Orléans St Denis

DERNIER METAR :
  • 141330Z AUTO 13004KT 100V160 9999 // BKN016 OVC025 07/03 Q0998

METARs EXPIRÉS :
  • 141230Z AUTO 14006KT 110V170 9999 BKN017 OVC023 07/04 Q0998
  • 141200Z AUTO 14004KT 110V170 9999 BKN014 OVC020 06/04 Q0998
  • 141130Z AUTO 18003KT 9999 OVC011 06/03 Q0998
  • 141100Z AUTO 17004KT 150V210 9999 OVC010 06/04 Q0998

TAF N/A



MET'MAP, la Météo Aéronautique d'un coup d'oeil ! - Copyright ORBIFLY Décembre 2007 - Disclaimer

ORBIFLY MET'MAP TEAM :

Programmation & Développement : Alexandra Zaïnal
Conception & Développement : Baudouin d'Aumeries
Co-Programmation & Développement : Marc-Olivier Méhu
Soutien technique & logistique : Manuel Goepfert

Contact : metmap@orbifly.com




SOURCES & CREDITS :

   NOAA